Regional Weather Roundup
Issued by NWS Newport/Morehead, NC

Current Version | Previous Version | Graphics & Text | Print | Product List | Glossary Off
Versions: 1 2 3 4 5 6 7 8 9 10 11 12 13 14 15 16 17 18 19 20 21 22 23 24 25 26 27 28 29 30 31 32 33 34 35 36 37 38 39 40 41 42 43 44 45 46 47 48 49 50

000
ASUS42 KMHX 281525
RWRMHX
WEATHER ROUNDUP FOR EASTERN NORTH CAROLINA
NATIONAL WEATHER SERVICE NEWPORT/MOREHEAD CITY NC
1100 AM EDT THU APR 28 2016

NOTE: "FAIR" INDICATES FEW OR NO CLOUDS BELOW 12,000 FEET
WITH NO SIGNIFICANT WEATHER AND/OR OBSTRUCTIONS TO VISIBILITY

NCZ015>017-031-032-045>047-102-103-281600-
NORTH COAST

CITY           SKY/WX    TMP DP  RH WIND       PRES   REMARKS
EDENTON        SUNNY     75  68  78 W5        29.94R
ELIZABETH CITY CLOUDY    62  60  93 NE10      29.95S
KITTY HAWK     CLOUDY    63  61  93 E6        29.95S
MANTEO         NOT AVBL

$$

NCZ045>047-081-094-103-104-281600-
CENTRAL COAST

CITY           SKY/WX    TMP DP  RH WIND       PRES   REMARKS
FRISCO         CLOUDY    72  68  87 SW9       29.96S
SWANQUARTER    NOT AVBL

$$

NCZ095-097-098-100-101-281600-
SOUTHERN COAST

CITY           SKY/WX    TMP DP  RH WIND       PRES   REMARKS
BEAUFORT       PTSUNNY   74  68  81 SW15      29.97S
CEDAR ISLAND   NOT AVBL
JACKSONVILLE   PTSUNNY   80  66  62 SW8       29.93F
PINEY ISLAND   SUNNY    N/A N/A N/A SW17      29.95F
WILMINGTON     PTSUNNY   77  67  71 SW14      29.95F


$$

NCZ011>013-027>030-043-044-078>080-089-090>093-098-281600-
COASTAL PLAIN

CITY           SKY/WX    TMP DP  RH WIND       PRES   REMARKS
AHOSKIE        CLOUDY    65  63  92 N7        29.95R
CLINTON        CLOUDY    76  67  74 SW6       29.94S
ELIZABETHTOWN  LGT RAIN  75  65  71 S9        29.96R
GOLDSBORO      CLOUDY    75  70  83 SW8       29.91F
GREENVILLE     CLOUDY    77  66  69 SW7       29.95S
HAVELOCK       PTSUNNY   78  67  68 SW15G21   29.95F
KENANSVILLE    MOSUNNY   76  65  70 SW3       29.95S
KINSTON        CLOUDY   N/A N/A N/A SW8       29.94S
NEW BERN       CLOUDY    79  65  62 W8        29.95S
RICHLANDS      CLOUDY    79  68  69 S13       29.95S
ROCKY MOUNT    CLOUDY    74  64  71 SW7       29.92S
WASHINGTON     PTSUNNY   75  66  73 SW8       29.93S
WHITEVILLE     CLOUDY    75  65  71 S9        29.97R

$$

AMZ130-135-150-152-154-156-158-170-250-252-270-ANZ085-086-088-633-658-670-281600-
MARINE OBSERVATIONS

STATION/POSITION TIME  TEMP    WIND        PRES    WAVE   SWELL
                       AIR SEA DIR/SP/G            HT/PER HT/PER
                 (UTC) (F)     (DEG/KT/KT) (MB)    (FT/S) (FT/S)
CHESAPEAKE LIGHT 1500   54      70/ 13/ 13 1015.6
64 E VA BEACH    1450   55 54   60/  6/  6 1014.3    3/ 6   3/ 6
DUCK             1500   58 64   80/  9/  9 1013.9
2 E DUCK         1511      57                N/A     3/ 5
OREGON INLET     1500   63 62   60/  7/ 11 1014.1
13E OREGON INLT  1500      61                N/A     3/ 6   3/ 6
HATTERAS CG      1500   72 67  210/ 11/ 14 1014.2
DIAMOND BUOY     1450   71 71  240/ 12/ 16 1014.7    3/ 6   2/ 6
CAPE LOOKOUT     1500   72     210/  9/ 13 1014.6
BEAUFORT LAB     1500   73 66  220/  9/ 12 1013.9
30 SE NEW RVR IN 1425      67                N/A     4/ 6
27 SE WRIGHTSVLE 1508   72 69  210/ 10/ 14 1018.3
5 SE WRIGHTSVLE  1508   70 66  220/ 14/ 16 1015.1
225 S CAPE HAT   1450   71 71  170/  4/  6 1018.1    2/11   2/11
41 SE CHARLESTON 1450   72 71  220/ 10/ 12 1015.3    3/ 5   2/ 5

$$



USA.gov is the U.S. government's official web portal to all federal, state and local government web resources and services.